Location: ???????????
(54.6970°N, 39.1477°E)
Time: 04:05:17
(UTC+00:00)

Cosmos 1452 Rocket - Pass Details

Date: 19 May 2025
Orbit: 764 x 770 km, 74.1° (Epoch: 19 June)

Event Time Altitude Azimuth Distance (km) Brightness Sun altitude
Rises 22:20:29 0° 332° (NNW) 3,244 7.5 -14.2°
Reaches altitude 10° 22:22:52 10° 332° (NNW) 2,314 6.7 -14.1°
Maximum altitude 22:28:08 87° 246° (WSW) 775 3.5 -13.9°
Enters shadow 22:33:09 11° 156° (SSE) 2,215 5.5 -13.7°
